This is the latest recevied weather packets stored in our database for station/object WC4PEM-4. If no packets are shown the sender has not sent any weather packets the latest 10 day(s).
| Time | Temp. | Humidity | Pressure | Rain* | Wind** | Luminosity | Snow |
|---|---|---|---|---|---|---|---|
| 1788273079 | 30° C | 79% | 1017 hPa | 0 mm | - | - | - |
| 1788273039 | 29.44° C | 81% | 1017 hPa | 0 mm | - | - | - |
| 1788273007 | 29.44° C | 81% | 1017 hPa | 0 mm | - | - | - |
| 1788272783 | 28.89° C | 82% | 1017.1 hPa | 0 mm | - | - | - |
| 1788272779 | 29.44° C | 81% | 1017 hPa | 0 mm | - | - | - |
| 1788272479 | 28.89° C | 82% | 1017.1 hPa | 0 mm | - | - | - |
| 1788272383 | 29.44° C | 79% | 1017 hPa | 0 mm | - | - | - |
| 1788272179 | 29.44° C | 79% | 1017 hPa | 0 mm | - | - | - |
| 1788272098 | 29.44° C | 82% | 1016.8 hPa | 0 mm | - | - | - |
| 1788271879 | 29.44° C | 82% | 1016.8 hPa | 0 mm | - | - | - |
| 1788271730 | 29.44° C | 82% | 1016.8 hPa | 0 mm | - | - | - |
| 1788271579 | 29.44° C | 82% | 1016.8 hPa | 0 mm | - | - | - |
| 1788271494 | 29.44° C | 82% | 1016.8 hPa | 0 mm | - | - | - |
| 1788271279 | 29.44° C | 82% | 1016.8 hPa | 0 mm | - | - | - |
| 1788270979 | 29.44° C | 81% | 1017 hPa | 0 mm | - | - | - |
| 1788270794 | 29.44° C | 81% | 1016.9 hPa | 0 mm | - | - | - |
| 1788270686 | 29.44° C | 81% | 1016.9 hPa | 0 mm | - | - | - |
| 1788270493 | 29.44° C | 83% | 1016.8 hPa | 0 mm | - | - | - |
| 1788270379 | 29.44° C | 83% | 1016.8 hPa | 0 mm | - | - | - |
| 1788270295 | 29.44° C | 83% | 1016.7 hPa | 0 mm | - | - | - |
| 1788270079 | 29.44° C | 83% | 1016.7 hPa | 0 mm | - | - | - |
| 1788269899 | 28.89° C | 84% | 1016.6 hPa | 0 mm | - | - | - |
| 1788269779 | 28.89° C | 84% | 1016.6 hPa | 0 mm | - | - | - |
| 1788269624 | 28.89° C | 84% | 1016.7 hPa | 0 mm | - | - | - |
| 1788269479 | 28.89° C | 84% | 1016.7 hPa | 0 mm | - | - | - |
* Rain latest hour (hover to see other rain measurements)
** Current wind speed in m/s (hover to see current wind gust speed)